sat.trackr.live / text

‹ back to catalog

STARLINK-36406

NORAD 67923 · 2026-036V

PAYLOAD ACTIVE UNKNOWN

§ Identity

Operator
Country
US
Launch date
2026-02-22
Launch site
AFETR
Launch vehicle
Mass (kg)
RCS (m²)

Purposes: comms

External: N2YO · Heavens-Above · Gunter

§ Orbital elements

Epoch: 2026-09-19T07:45:01.161504Z

Period
94.27 min
Inclination
43.0005°
Eccentricity
0.0001405
Mean motion
15.27583227 rev/d
Perigee alt
482.1 km
Apogee alt
484.0 km
Semi-major
6,861.2 km
B*
2.6787e-4
RAAN
231.9315°
Arg perigee
266.5023°
Mean anomaly
93.5668°
Rev number
3,333

§ Raw data

STARLINK-364061 67923U 26036V   26262.32293011  .00007117  00000+0  26787-3 0  99912 67923  43.0005 231.9315 0001405 266.5023  93.5668 15.27583227 33330

JSON: /api/v1/satellites/67923 · /tle

For live sub-satellite position, see the globe view (requires WebGL).

§ Visibility from observer

Set your observer location to see the next 7 days of passes ≥ 10°. The values pass through the URL so the page stays shareable.

No JS? Fill the form by hand. The geolocation button needs JavaScript.